sat.trackr.live / text

‹ back to catalog

GONETS-M 3

NORAD 38734 · 2012-041B

PAYLOAD ACTIVE UNKNOWN

§ Identity

Operator
Country
CIS
Launch date
2012-07-28
Launch site
PLMSC
Launch vehicle
Mass (kg)
RCS (m²)
1.66

External: N2YO · Heavens-Above · Gunter

§ Orbital elements

Epoch: 2026-09-13T05:34:17.234688Z

Period
115.67 min
Inclination
82.4804°
Eccentricity
0.0016165
Mean motion
12.44905304 rev/d
Perigee alt
1,473.2 km
Apogee alt
1,498.6 km
Semi-major
7,864.0 km
B*
4.7172e-4
RAAN
9.6515°
Arg perigee
226.0043°
Mean anomaly
133.9706°
Rev number
64,162

§ Raw data

GONETS-M 31 38734U 12041B   26256.23214392  .00000077  00000+0  47172-3 0  99972 38734  82.4804   9.6515 0016165 226.0043 133.9706 12.44905304641625

JSON: /api/v1/satellites/38734 · /tle

For live sub-satellite position, see the globe view (requires WebGL).

§ Visibility from observer

Set your observer location to see the next 7 days of passes ≥ 10°. The values pass through the URL so the page stays shareable.

No JS? Fill the form by hand. The geolocation button needs JavaScript.